Location: Crab Orchard
(37.7292°N, 88.8042°W)
Time: 18:12:00
(UTC+00:00)

CSL-04 Rocket - Pass Details

Date: 08 December 2019
Orbit: 807 x 859 km, 99.0° (Epoch: 22 January)

Event Time Altitude Azimuth Distance (km) Brightness Sun altitude
Rises 23:41:41 0° 138° (SE) 3,313 6.6 -12.7°
Reaches altitude 10° 23:44:14 10° 128° (SE) 2,384 5.7 -13.1°
Maximum altitude 23:48:48 31° 68° (ENE) 1,384 4.3 -14.0°
Drops below altitude 10° 23:53:24 10° 7° (N) 2,399 5.8 -14.9°
Sets 23:55:58 0° 358° (N) 3,339 6.7 -15.3°
